Weather History for Crystal River, FL

Change the Weather History Date:

Wednesday, March 6, 2013

  Actual Average (KBKV) Record (KBKV)
Temperature  
Mean Temperature 55 °F -  
Max Temperature 64 °F 73 °F 86 °F (2003)
Min Temperature 44 °F 49 °F 32 °F (2007)
Degree Days  
Heating Degree Days 10    
Growing Degree Days 5 (Base 50)    
Moisture  
Dew Point 38 °F    
Average Humidity 55    
Maximum Humidity 94    
Minimum Humidity 41    
Precipitation  
Precipitation 0.03 in - - ()
Sea Level Pressure  
Sea Level Pressure 30.08 in    
Wind  
Wind Speed 10 mph (WNW)    
Max Wind Speed 22 mph    
Max Gust Speed 34 mph    
Visibility 10 miles    
Events Rain    
Averages and records for this station are not official NWS values.
T = Trace of Precipitation, MM = Missing Value Source: NWS Daily Summary

Daily Weather History Graph

Daily Weather History Graph

Search for Another Location

Airport:

Trip Planner

Search our weather history database for the weather conditions in past years. The results will help you decide how hot, cold, wet, or windy it might be!

Date:

Astronomy

Mar. 06, 2013 Rise Set
Actual Time 6:49 AM EST 6:33 PM EST
Civil Twilight 6:26 AM EST 6:57 PM EST
Nautical Twilight 5:58 AM EST 7:24 PM EST
Astronomical Twilight 5:31 AM EST 7:52 PM EST
Moon 2:38 AM EST (3/6) 1:33 PM EST (3/6)
Length of Visible Light 12h 30m
Length of Day
11h 43m
Waning Crescent, 30% of the Moon is Illuminated
Mar 6
Waning Crescent
Mar 11
New
Mar 19
First Quarter
Mar 27
Full
Apr 3
Last Quarter

Hourly Weather History & Observations

Time (EST) Temp. Windchill Dew Point Humidity Pressure Visibility Wind Dir Wind Speed Gust Speed Precip Events Conditions
12:15 AM 62.6 °F - 59.0 °F 88% 30.01 in 10.0 mi SW 8.1 mph - N/A   Mostly Cloudy
12:35 AM 62.6 °F - 59.0 °F 88% 30.00 in 10.0 mi SW 6.9 mph - N/A   Mostly Cloudy
12:55 AM 62.6 °F - 59.0 °F 88% 29.99 in 10.0 mi SW 8.1 mph 17.3 mph N/A   Overcast
1:15 AM 64.4 °F - 59.0 °F 83% 29.99 in 10.0 mi WSW 8.1 mph - N/A   Overcast
1:35 AM 64.4 °F - 59.0 °F 83% 29.98 in 10.0 mi SW 8.1 mph - N/A   Overcast
1:55 AM 64.4 °F - 60.8 °F 88% 29.98 in 10.0 mi SW 6.9 mph - N/A Rain Rain
2:15 AM 62.6 °F - 60.8 °F 94% 29.97 in 7.0 mi WSW 9.2 mph - 0.03 in Rain Light Rain
2:35 AM 62.6 °F - 60.8 °F 94% 29.96 in 10.0 mi SW 8.1 mph - 0.03 in   Overcast
2:55 AM 64.4 °F - 60.8 °F 88% 29.97 in 10.0 mi West 19.6 mph 31.1 mph 0.03 in Rain Light Rain
3:15 AM 59.0 °F - 55.4 °F 88% 29.97 in 10.0 mi WNW 11.5 mph 20.7 mph N/A   Overcast
3:35 AM 59.0 °F - 53.6 °F 82% 29.97 in 10.0 mi West 10.4 mph 17.3 mph N/A   Overcast
3:55 AM 59.0 °F - 51.8 °F 77% 29.98 in 10.0 mi West 11.5 mph 18.4 mph N/A   Overcast
4:15 AM 57.2 °F - 51.8 °F 82% 29.99 in 10.0 mi West 10.4 mph 19.6 mph N/A   Overcast
4:35 AM 55.4 °F - 48.2 °F 77% 30.00 in 10.0 mi West 9.2 mph 17.3 mph N/A   Overcast
4:55 AM 55.4 °F - 48.2 °F 77% 30.01 in 10.0 mi WNW 6.9 mph 16.1 mph N/A   Overcast
5:15 AM 55.4 °F - 42.8 °F 63% 30.04 in 10.0 mi NW 9.2 mph 19.6 mph N/A   Overcast
5:35 AM 53.6 °F - 41.0 °F 62% 30.06 in 10.0 mi North 15.0 mph 19.6 mph N/A   Overcast
5:55 AM 51.8 °F - 33.8 °F 50% 30.07 in 10.0 mi North 12.7 mph - N/A   Mostly Cloudy
6:15 AM 50.0 °F - 32.0 °F 50% 30.09 in 10.0 mi NNW 5.8 mph - N/A   Mostly Cloudy
6:35 AM 48.2 °F - 32.0 °F 54% 30.10 in 10.0 mi NNW 9.2 mph 18.4 mph N/A   Mostly Cloudy
6:55 AM 46.4 °F 42.4 °F 32.0 °F 57% 30.11 in 10.0 mi NW 8.1 mph 17.3 mph N/A   Scattered Clouds
7:15 AM 46.4 °F 41.9 °F 32.0 °F 57% 30.11 in 10.0 mi NW 9.2 mph - N/A   Clear
7:35 AM 46.4 °F 42.9 °F 32.0 °F 57% 30.13 in 10.0 mi NW 6.9 mph - N/A   Clear
7:55 AM 48.2 °F - 32.0 °F 54% 30.14 in 10.0 mi NW 10.4 mph 18.4 mph N/A   Clear
8:15 AM 50.0 °F - 32.0 °F 50% 30.14 in 10.0 mi NW 11.5 mph 20.7 mph N/A   Clear
8:35 AM 50.0 °F - 32.0 °F 50% 30.14 in 10.0 mi NW 12.7 mph 18.4 mph N/A   Clear
8:55 AM 51.8 °F - 30.2 °F 44% 30.14 in 10.0 mi NW 13.8 mph 21.9 mph N/A   Clear
9:15 AM 51.8 °F - 30.2 °F 44% 30.14 in 10.0 mi NW 10.4 mph 23.0 mph N/A   Clear
9:35 AM 53.6 °F - 32.0 °F 44% 30.14 in 10.0 mi WNW 10.4 mph 16.1 mph N/A   Clear
9:55 AM 53.6 °F - 32.0 °F 44% 30.14 in 10.0 mi NW 12.7 mph 20.7 mph N/A   Clear
10:15 AM 53.6 °F - 32.0 °F 44% 30.13 in 10.0 mi WNW 13.8 mph 26.5 mph N/A   Clear
10:35 AM 55.4 °F - 33.8 °F 44% 30.13 in 10.0 mi WNW 12.7 mph 27.6 mph N/A   Clear
10:55 AM 53.6 °F - 33.8 °F 47% 30.12 in 10.0 mi WNW 12.7 mph 20.7 mph N/A   Clear
11:15 AM 55.4 °F - 33.8 °F 44% 30.12 in 10.0 mi West 18.4 mph 25.3 mph N/A   Clear
11:35 AM 55.4 °F - 33.8 °F 44% 30.12 in 10.0 mi West 13.8 mph 20.7 mph N/A   Clear
11:55 AM 55.4 °F - 33.8 °F 44% 30.11 in 10.0 mi West 17.3 mph 25.3 mph N/A   Clear
12:15 PM 55.4 °F - 33.8 °F 44% 30.10 in 10.0 mi West 18.4 mph 27.6 mph N/A   Clear
12:35 PM 55.4 °F - 32.0 °F 41% 30.10 in 10.0 mi West 17.3 mph 24.2 mph N/A   Clear
12:55 PM 55.4 °F - 33.8 °F 44% 30.09 in 10.0 mi West 17.3 mph 29.9 mph N/A   Clear
1:15 PM 55.4 °F - 33.8 °F 44% 30.08 in 10.0 mi West 21.9 mph 28.8 mph N/A   Clear
1:35 PM 57.2 °F - 33.8 °F 41% 30.07 in 10.0 mi West 18.4 mph 28.8 mph N/A   Clear
1:55 PM 55.4 °F - 33.8 °F 44% 30.06 in 10.0 mi West 13.8 mph 25.3 mph N/A   Clear
2:15 PM 55.4 °F - 33.8 °F 44% 30.06 in 10.0 mi WNW 16.1 mph 26.5 mph N/A   Clear
2:35 PM 55.4 °F - 33.8 °F 44% 30.05 in 10.0 mi West 20.7 mph 26.5 mph N/A   Clear
2:55 PM 55.4 °F - 32.0 °F 41% 30.05 in 10.0 mi WNW 17.3 mph 28.8 mph N/A   Clear
3:15 PM 55.4 °F - 32.0 °F 41% 30.05 in 10.0 mi West 17.3 mph 32.2 mph N/A   Clear
3:35 PM 55.4 °F - 32.0 °F 41% 30.05 in 10.0 mi WNW 17.3 mph 33.4 mph N/A   Clear
3:55 PM 55.4 °F - 32.0 °F 41% 30.06 in 10.0 mi WNW 20.7 mph 34.5 mph N/A   Clear
4:15 PM 55.4 °F - 32.0 °F 41% 30.05 in 10.0 mi WNW 13.8 mph 28.8 mph N/A   Clear
4:35 PM 55.4 °F - 32.0 °F 41% 30.06 in 10.0 mi West 17.3 mph 29.9 mph N/A   Clear
4:55 PM 55.4 °F - 32.0 °F 41% 30.05 in 10.0 mi WNW 11.5 mph 28.8 mph N/A   Clear
5:15 PM 55.4 °F - 32.0 °F 41% 30.06 in 10.0 mi West 12.7 mph 23.0 mph N/A   Clear
5:35 PM 55.4 °F - 32.0 °F 41% 30.06 in 10.0 mi WNW 10.4 mph 23.0 mph N/A   Clear
5:55 PM 55.4 °F - 32.0 °F 41% 30.06 in 10.0 mi WNW 11.5 mph 25.3 mph N/A   Clear
6:15 PM 53.6 °F - 32.0 °F 44% 30.07 in 10.0 mi WNW 11.5 mph 26.5 mph N/A   Clear
6:35 PM 53.6 °F - 32.0 °F 44% 30.08 in 10.0 mi WNW 8.1 mph 19.6 mph N/A   Clear
6:55 PM 53.6 °F - 32.0 °F 44% 30.08 in 10.0 mi WNW 9.2 mph 16.1 mph N/A   Clear
7:15 PM 53.6 °F - 32.0 °F 44% 30.09 in 10.0 mi WNW 10.4 mph 20.7 mph N/A   Clear
7:35 PM 53.6 °F - 32.0 °F 44% 30.10 in 10.0 mi WNW 6.9 mph 19.6 mph N/A   Clear
7:55 PM 53.6 °F - 33.8 °F 47% 30.10 in 10.0 mi WNW 5.8 mph - N/A   Clear
8:15 PM 53.6 °F - 33.8 °F 47% 30.11 in 10.0 mi WNW 6.9 mph - N/A   Clear
8:35 PM 51.8 °F - 33.8 °F 50% 30.12 in 10.0 mi NW 5.8 mph - N/A   Clear
8:55 PM 51.8 °F - 32.0 °F 47% 30.13 in 10.0 mi NW 6.9 mph - N/A   Clear
9:35 PM 51.8 °F - 32.0 °F 47% 30.15 in 10.0 mi NNW 4.6 mph - N/A   Clear
9:55 PM 50.0 °F - 30.2 °F 47% 30.16 in 10.0 mi NW 4.6 mph - N/A   Clear
10:15 PM 50.0 °F - 30.2 °F 47% 30.17 in 10.0 mi NNW 4.6 mph - N/A   Clear
10:35 PM 50.0 °F - 30.2 °F 47% 30.18 in 10.0 mi NNW 4.6 mph - N/A   Clear
10:55 PM 48.2 °F - 30.2 °F 50% 30.18 in 10.0 mi NNW 5.8 mph - N/A   Clear
11:15 PM 46.4 °F 44.3 °F 30.2 °F 53% 30.19 in 10.0 mi NNW 4.6 mph - N/A   Clear
11:35 PM 46.4 °F 45.2 °F 30.2 °F 53% 30.19 in 10.0 mi NNW 3.5 mph - N/A   Clear
11:55 PM 44.6 °F 40.7 °F 30.2 °F 57% 30.19 in 10.0 mi NNW 6.9 mph - N/A   Clear